Orbital Elements at Epoch 2459200.5 (2020-Dec-17.0) TDB
Reference: JPL 19 (heliocentric ecliptic J2000)
Element | Value | Uncertainty (1-sigma) | Units |
e | .1034590810575756 | 4.4702e-08 | |
a | 2.764987692586504 | 1.6735e-08 | au |
q | 2.478924606775998 | 1.2595e-07 | au |
i | 2.539706107743628 | 4.8023e-06 | deg |
node | 267.0601298218253 | 0.00012293 | deg |
peri | 121.861931675136 | 0.00012684 | deg |
M | 56.02618404325051 | 2.9182e-05 | deg |
tp | 2458939.147430963870 (2020-Mar-30.64743096) | 0.00013565 | TDB |
period | 1679.338446116097 4.60 | 1.5246e-05 4.174e-08 | d yr |
n | .2143701293998198 | 1.9462e-09 | deg/d |
Q | 3.05105077839701 | 1.8466e-08 | au |
|
| | Orbit Determination Parameters
Additional Information
|